Regional Weather Roundup
Issued by NWS Little Rock, AR

Home | Current Version | Previous Version | Graphics & Text | Print | Product List | Glossary On
Versions: 1 2 3 4 5 6 7 8 9 10 11 12 13 14 15 16 17 18 19 20 21 22 23 24 25 26 27 28 29 30 31 32 33 34 35 36 37 38 39 40 41 42 43 44 45 46 47 48 49 50
000
ASUS44 KLZK 040405
RWRLZK

WEATHER ROUNDUP FOR ARKANSAS
NATIONAL WEATHER SERVICE LITTLE ROCK AR
1000 PM CST TUE MAR 03 2015

NOTE: "FAIR" INDICATES FEW OR NO CLOUDS BELOW 12,000 FEET WITH NO
SIGNIFICANT WEATHER AND/OR OBSTRUCTIONS TO VISIBILITY.

ARZ001-003-010-029-040500-
NORTHWEST ARKANSAS

CITY           SKY/WX    TMP DP  RH WIND       PRES   REMARKS
FAYETTEVILLE   LGT RAIN  46  46 100 CALM      29.89F FOG
FORT SMITH     LGT RAIN  44  43  96 CALM      29.90R FOG
HARRISON       LGT RAIN  46  46 100 CALM      29.89S FOG
BENTONVILLE    CLOUDY    46  45  93 S6        29.90R
ROGERS         LGT RAIN  47  46  97 SE5       29.89F FOG
SILOAM SPGS    CLOUDY    46  43  87 E3        29.88S
HIGHFILL       LGT RAIN  46  45  96 SE5       29.87F FOG
$$

ARZ004-005-016-040500-
NORTH CENTRAL ARKANSAS

CITY           SKY/WX    TMP DP  RH WIND       PRES   REMARKS
BATESVILLE     CLOUDY    52  52 100 CALM      29.88S
FLIPPIN        CLOUDY    48  43  81 N7        29.90R
MTN HOME       LGT RAIN  47  47 100 N3        29.90R FOG
$$

ARZ040-041-040500-
WEST CENTRAL ARKANSAS

CITY           SKY/WX    TMP DP  RH WIND       PRES   REMARKS
MENA           CLOUDY    52  52 100 W6        29.88R
MOUNT IDA      FOG       53  51  93 CALM      29.85R VSB 3/4
$$

ARZ009-017-025-026-028-040500-
NORTHEAST ARKANSAS

CITY           SKY/WX    TMP DP  RH WIND       PRES   REMARKS
CORNING        LGT RAIN  46  46 100 N5        29.90S
JONESBORO      LGT RAIN  51  51 100 W6        29.89S FOG
NEWPORT        FOG       51  51 100 CALM      29.90S VSB 3/4
WALNUT RIDGE   CLOUDY    52  48  87 W7        29.88R
BLYTHEVILLE    FOG       51  51 100 NW9       29.89R VSB 3/4
$$

ARZ022-023-033-042-044-040500-
CENTRAL ARKANSAS

CITY           SKY/WX    TMP DP  RH WIND       PRES   REMARKS
LITTLE ROCK    FOG       52  50  93 N3        29.88S VSB 1/8
N LITTLE ROCK  CLOUDY    53  53 100 NW3       29.88S
JACKSONVILLE   FOG       54  54 100 CALM      29.88S VSB 1/4
SEARCY         FOG       51  50  96 SE3       29.90S VSB 1/4
HOT SPRINGS    FOG       53  53 100 CALM      29.88R VSB 1
RUSSELLVILLE   LGT RAIN  46  46 100 CALM      29.89R FOG
CLINTON        LGT RAIN  46  46 100 CALM      29.91S VSB 3/4
$$

ARZ036-040500-
EAST ARKANSAS

CITY           SKY/WX    TMP DP  RH WIND       PRES   REMARKS
WEST MEMPHIS   FOG       57  57 100 SW7       29.88S VSB 3/4
$$

ARZ050-053-066-070-073-040500-
SOUTHWEST ARKANSAS

CITY           SKY/WX    TMP DP  RH WIND       PRES   REMARKS
ARKADELPHIA    LGT RAIN  51  51 100 CALM      29.88S FOG
CAMDEN         FOG       55  54  94 CALM      29.88S VSB 1/4
TEXARKANA      CLOUDY    62  61  96 S6        29.86R FOG
EL DORADO      CLOUDY    63  62  97 S8        29.88F
DE QUEEN       LGT RAIN  50  49  96 CALM      29.85F FOG
$$

ARZ056-057-069-040500-
SOUTHEAST ARKANSAS

CITY           SKY/WX    TMP DP  RH WIND       PRES   REMARKS
PINE BLUFF     FOG       55  55 100 CALM      29.89S VSB 1/4
STUTTGART      CLOUDY    55  54  94 S7        29.89F VSB 1/2
MONTICELLO     PTCLDY    63  61  93 S7        29.89S

$$




USA.gov is the U.S. government's official web portal to all federal, state and local government web resources and services.